KBTVKRUT

Guest
Details From KBTV - Burlington Intl
To KRUT - Rutland State
Flight Number -
Tags Routegen
Created
Modified
Stats Distance 58 nm / 108 km
Max Altitude 0 ft / 0 m
Waypoints 2
Social Downloads 2
Likes 0
Share VATSIM

Download

Looking for another format? Having issues loading an existing format? Contact us
Advertisement - Login to hide

Notes

None

Route

KBTV KRUT

ID Type Via Altitude (ft/m) Position (lat/lon) Dist (leg/tot) Name
O KBTV APT - 0 / 0 44.48068 / -73.16588 - / 0 nm
O KRUT APT - 0 / 0 43.52488 / -72.94948 58 / 58 nm

Altitude Profile

Advertisement - Login to hide

KBTV

Details ICAO KBTV (BTV)
Name BURLINGTON INTL
Region United States
Timezone America/New_York (UTC-5.0)
Stats Elevation 335 ft / 102 m (AMSL)
Location 44.471300° -73.153000°
Runways 2
Magnetic Variation 14.177° W

METAR

KBTV 261754Z 21004KT 10SM -RA FEW025 OVC036 03/01 A2962 RMK AO2 SLP033 4/004 P0001 60001 T00280011 10028 20011 58016

Decode

TAF

KBTV 261734Z 2618/2718 17007KT 6SM -RA BR BKN028 OVC040 TEMPO 2618/2621 3SM -RASN BR OVC028 FM262100 21007KT P6SM VCSH OVC035 FM270800 19006KT P6SM VCSH OVC028

Decode

Departure Runways

ID Width Length Bearing (true/mag) Surface Threshold Overrun Markings Lighting
01 75 ft / 23 m 4,115 ft / 1,254 m 351.48° / 5.65° ASPHALT 226 ft / 69 m 0 ft / 0 m APP EDGE THRESHOLD
15 151 ft / 46 m 8,329 ft / 2,539 m 130.94° / 145.11° ASPHALT 0 ft / 0 m 495 ft / 151 m APP CENTERLINE EDGE THRESHOLD MALSR
19 75 ft / 23 m 4,115 ft / 1,254 m 171.47° / 185.65° ASPHALT 495 ft / 151 m 0 ft / 0 m APP EDGE THRESHOLD
33 151 ft / 46 m 8,329 ft / 2,539 m 310.95° / 325.13° ASPHALT 518 ft / 158 m 499 ft / 152 m APP CENTERLINE EDGE THRESHOLD MALSR

KRUT

Details ICAO KRUT (RUT)
Name RUTLAND STATE
Region United States
Timezone America/New_York (UTC-5.0)
Stats Elevation 787 ft / 240 m (AMSL)
Location 43.529400° -72.949600°
Runways 2
Magnetic Variation 14.017° W

METAR

KRUT 261808Z AUTO 24006KT 10SM -RA BKN015 OVC022 02/01 A2965 RMK AO2 P0000 FZRANO $

Decode

TAF

KRUT 261734Z 2618/2718 VRB04KT P6SM -RA BKN019 OVC025 FM262100 24009KT 6SM BR VCSH OVC025

Decode

Destination Runways

ID Width Length Bearing (true/mag) Surface Threshold Overrun Markings Lighting
01 98 ft / 30 m 5,008 ft / 1,526 m 358.50° / 12.52° ASPHALT 0 ft / 0 m 0 ft / 0 m APP EDGE THRESHOLD
13 75 ft / 23 m 3,172 ft / 967 m 118.72° / 132.73° ASPHALT 0 ft / 0 m 0 ft / 0 m APP EDGE THRESHOLD REIL-OMNI
19 98 ft / 30 m 5,008 ft / 1,526 m 178.50° / 192.52° ASPHALT 0 ft / 0 m 0 ft / 0 m APP EDGE THRESHOLD MALSR REIL-UNI
31 75 ft / 23 m 3,172 ft / 967 m 298.72° / 312.74° ASPHALT 0 ft / 0 m 0 ft / 0 m APP EDGE THRESHOLD

Approach Navaids

Runway Type Ident Frequency Range Bearing (true/mag) Slope Elevation
19 DME IRUT 111.70 MHz 18 nm / 33 km - - 787 ft / 240 m (AMSL)
19 LOC-ILS IRUT 111.70 MHz 18 nm / 33 km 178.50° / 192.52 ° - 787 ft / 240 m (AMSL)
19 GS IRUT 111.70 MHz 10 nm / 19 km 178.50° / 192.52 ° 3.20° 787 ft / 240 m (AMSL)

Popular Alternatives